AOR-E (EGNOS/PRN 120)

Last updated on April 19, 2019, 3 a.m. UTC

1 24307U 96053A   19107.48583052 -.00000181  00000-0  00000-0 0  9993
2 24307   4.0009  74.2886 0007553 311.4914 268.0910  0.99982702 82775
UTC
Height (km)
Latitude
Longitude
Inclination
Orbital Period
UTC large
Height (km)
Speed (km/s)
/
Latitude / Longitude
Inclination (degrees)
Orbital Period (minutes)
Azimuth
Elevation
Range (km)
Doppler Factor
iOS Compass Heading
iOS Angle

Next 30 passes for location: Hong Kong

Rise time Rise Azimuth (degrees) Set time Set Azimuth (degrees) Duration Max altitude (degrees)

No matching passes for this satellites